FW6797 Weather Reports


time (UTC)temp
F
wind
direction
speed
knots
gust
knots
rain 1hr
in
rain 24hr
in
rain mn
in
humidity
%
barometer
mb
20260505160504 68 195 0.9 6.1 0.00 0.00 0.00 61 1007.7
20260505153012 68 195 0.9 5.2 0.00 0.00 0.00 66 1006.9
20260505152504 68 200 3.5 5.2 0.00 0.00 0.00 64 1007.0
20260505152007 68 174 2.6 6.1 0.00 0.00 0.00 66 1006.8
20260505151518 67 175 2.6 6.1 0.00 0.00 0.00 66 1006.9
20260505151006 67 208 2.6 6.1 0.00 0.00 0.00 67 1006.9
20260505150508 67 165 2.6 5.2 0.00 0.00 0.00 66 1007.0
20260505140510 64 196 2.6 7.0 0.00 0.00 0.00 71 1007.0
20260505125009 60 199 1.7 2.6 0.00 0.00 0.00 77 1006.9
20260505124522 60 178 1.7 2.6 0.00 0.00 0.00 76 1006.7
20260505124013 60 181 0.0 2.6 0.00 0.00 0.00 77 1006.7
20260505123513 60 185 1.7 2.6 0.00 0.00 0.00 76 1006.7
20260505123008 60 201 0.9 3.5 0.00 0.00 0.00 76 1006.8
20260505122503 59 206 1.7 4.3 0.00 0.00 0.00 77 1006.4
20260505122006 59 198 1.7 7.0 0.00 0.00 0.00 77 1006.1
20260505121513 59 190 1.7 11.3 0.00 0.00 0.00 78 1005.9
20260505121006 59 168 2.6 11.3 0.00 0.00 0.00 77 1005.6
20260505120507 59 149 4.3 8.7 0.00 0.00 0.00 78 1005.4
20260505120018 59 165 2.6 4.3 0.00 0.00 0.00 78 1005.9
20260505115511 59 176 1.7 4.3 0.00 0.00 0.00 78 1005.6
20260505115006 59 180 1.7 3.5 0.00 0.00 0.00 79 1005.8
20260505114520 59 189 1.7 3.5 0.00 0.00 0.00 79 1005.9
20260505114009 59 180 1.7 3.5 0.00 0.00 0.00 78 1006.0
20260505113514 59 190 1.7 2.6 0.00 0.00 0.00 77 1006.0
20260505113030 59 199 0.9 4.3 0.00 0.00 0.00 77 1006.0
20260505112510 60 176 0.9 4.3 0.00 0.00 0.00 74 1006.0
20260505112012 61 158 1.7 4.3 0.00 0.00 0.00 72 1006.2
20260505111510 61 191 0.9 5.2 0.00 0.00 0.00 69 1006.0
20260505111003 61 257 2.6 7.0 0.00 0.00 0.00 69 1006.0
20260505110504 62 177 1.7 7.0 0.00 0.00 0.00 69 1006.0
20260505102002 62 190 1.7 4.3 0.00 0.00 0.00 69 1005.7
20260505101513 62 175 1.7 4.3 0.00 0.00 0.00 68 1005.7
20260505101004 62 192 1.7 2.6 0.00 0.00 0.00 68 1005.6
20260505100506 62 172 0.9 3.5 0.00 0.00 0.00 67 1005.5
20260505100014 63 192 0.9 3.5 0.00 0.00 0.00 67 1005.5
20260505095505 63 202 1.7 3.5 0.00 0.00 0.00 66 1005.4
20260505095009 63 190 1.7 3.5 0.00 0.00 0.00 66 1005.4
20260505094525 63 191 1.7 5.2 0.00 0.00 0.00 65 1005.4
20260505094007 64 178 1.7 4.3 0.00 0.00 0.00 65 1005.3
20260505093511 64 191 1.7 4.3 0.00 0.00 0.00 65 1005.1
20260505093024 64 191 1.7 4.3 0.00 0.00 0.00 64 1005.1
20260505092506 64 173 1.7 5.2 0.00 0.00 0.00 64 1005.0
20260505091522 64 200 3.5 7.0 0.00 0.00 0.00 63 1004.7
20260505091004 64 161 1.7 5.2 0.00 0.00 0.00 63 1004.8
20260505090503 64 184 1.7 5.2 0.00 0.00 0.00 63 1004.8
20260505085504 65 193 1.7 5.2 0.00 0.00 0.00 62 1004.6
20260505085009 65 190 1.7 7.8 0.00 0.00 0.00 62 1004.6
20260505084514 65 207 1.7 7.8 0.00 0.00 0.00 62 1004.6
20260505084010 64 192 2.6 5.2 0.00 0.00 0.00 63 1004.5
20260505083507 64 217 1.7 5.2 0.00 0.00 0.00 64 1004.4
20260505083019 64 200 1.7 6.1 0.00 0.00 0.00 65 1004.4
20260505082507 64 182 1.7 6.1 0.00 0.00 0.00 65 1004.4
20260505082009 64 188 2.6 4.3 0.00 0.00 0.00 65 1004.5
20260505081523 64 186 1.7 4.3 0.00 0.00 0.00 66 1004.6
20260505081008 64 212 2.6 4.3 0.00 0.00 0.00 66 1004.5
20260505080510 64 197 2.6 4.3 0.00 0.00 0.00 66 1004.5
20260505080026 64 202 1.7 3.5 0.00 0.00 0.00 1004.5
20260505075506 64 201 1.7 4.3 0.00 0.00 0.00 1004.3
20260505073505 64 192 2.6 5.2 0.00 0.00 0.00 65 1004.1
20260505072506 64 188 3.5 7.0 0.00 0.00 0.00 65 1004.0
20260505071521 64 183 3.5 5.2 0.00 0.00 0.00 66 1003.9
20260505071010 64 193 3.5 7.0 0.00 0.00 0.00 66 1003.9
20260505070509 64 174 2.6 7.0 0.00 0.00 0.00 66 1003.9
20260505070036 64 202 3.5 5.2 0.00 0.00 0.00 66 1003.8
20260505065508 64 191 3.5 5.2 0.00 0.00 0.00 66 1003.9
20260505065009 64 185 3.5 5.2 0.00 0.00 0.00 66 1003.9
20260505064508 64 205 2.6 5.2 0.00 0.00 0.00 66 1004.0
20260505064006 64 178 2.6 5.2 0.00 0.00 0.00 66 1004.1
20260505063015 64 185 2.6 5.2 0.00 0.00 0.00 1004.0
20260505062508 64 180 2.6 6.1 0.00 0.00 0.00 66 1004.2
20260505062009 64 193 3.5 6.1 0.00 0.00 0.00 66 1004.2
20260505061523 64 178 3.5 5.2 0.00 0.00 0.00 66 1004.2
20260505061010 64 177 2.6 6.1 0.00 0.00 0.00 66 1004.2
20260505060022 64 181 2.6 5.2 0.00 0.00 0.00 66 1004.2
20260505055511 64 188 2.6 5.2 0.00 0.00 0.00 66 1004.2
20260505055015 64 188 2.6 7.0 0.00 0.00 0.00 66 1004.4
20260505054533 64 173 2.6 7.0 0.00 0.00 0.00 67 1004.3
20260505054014 64 201 2.6 6.1 0.00 0.00 0.00 67 1004.5
20260505053516 64 188 3.5 6.1 0.00 0.00 0.00 67 1004.7
20260505052008 64 180 2.6 5.2 0.00 0.00 0.00 68 1004.8
20260505051009 63 194 2.6 4.3 0.00 0.00 0.00 69 1004.8
20260505041528 63 195 1.7 4.3 0.00 0.00 0.00 69 1005.1
20260505041009 63 174 1.7 4.3 0.00 0.00 0.00 69 1005.1
20260505035006 63 173 1.7 6.1 0.00 0.00 0.00 69 1005.1
20260505033508 63 186 2.6 7.8 0.00 0.00 0.00 69 1005.2
20260505033026 63 181 3.5 7.8 0.00 0.00 0.00 68 1005.2
20260505032508 63 193 2.6 7.0 0.00 0.00 0.00 70 1005.2
20260505032014 63 182 2.6 9.6 0.00 0.00 0.00 70 1005.1
20260505031537 63 174 4.3 9.6 0.00 0.00 0.00 70 1005.2
20260505031010 63 182 1.7 6.1 0.00 0.00 0.00 68 1005.3
20260505030510 63 167 1.7 5.2 0.00 0.00 0.00 68 1005.3
20260505030017 63 175 2.6 4.3 0.00 0.00 0.00 68 1005.3
20260505025510 63 175 2.6 8.7 0.00 0.00 0.00 67 1005.3
20260505025011 63 175 4.3 8.7 0.00 0.00 0.00 67 1005.2
20260505024006 63 165 2.6 5.2 0.00 0.00 0.00 68 1005.2
20260505022508 63 180 1.7 5.2 0.00 0.00 0.00 67 1005.2
20260505022014 63 181 1.7 5.2 0.00 0.00 0.00 67 1005.1
20260505021526 63 176 1.7 6.1 0.00 0.00 0.00 67 1005.1
20260505021012 63 189 2.6 7.0 0.00 0.00 0.00 67 1005.2
20260505020507 63 175 1.7 7.0 0.00 0.00 0.00 67 1005.2
20260505015508 63 158 1.7 5.2 0.00 0.00 0.00 67 1005.2
20260505013514 64 177 1.7 3.5 0.00 0.00 0.00 66 1005.3
20260505012504 64 187 1.7 4.3 0.00 0.00 0.00 65 1005.3
20260505010506 64 194 2.6 4.3 0.00 0.00 0.00 63 1005.2
20260505005507 65 183 2.6 5.2 0.00 0.00 0.00 61 1005.2
20260505004517 66 191 2.6 6.1 0.00 0.00 0.00 60 1005.1
20260505003511 67 171 3.5 7.0 0.00 0.00 0.00 58 1005.0
20260505002509 67 200 4.3 7.8 0.00 0.00 0.00 58 1005.0
20260505002009 67 200 1.7 5.2 0.00 0.00 0.00 58 1004.8
20260505001524 67 192 2.6 5.2 0.00 0.00 0.00 58 1004.7
20260505000503 67 157 2.6 4.3 0.00 0.00 0.00 58 1004.4
20260505000010 67 187 2.6 4.3 0.00 0.00 0.00 58 1004.3
20260504235510 68 173 1.7 4.3 0.00 0.00 0.00 58 1004.3
20260504235011 68 184 1.7 4.3 0.00 0.00 0.00 57 1004.2
20260504234515 68 200 2.6 5.2 0.00 0.00 0.00 56 1004.1
20260504234008 68 200 2.6 5.2 0.00 0.00 0.00 56 1004.2
20260504233023 69 192 2.6 5.2 0.00 0.00 0.00 54 1004.0
20260504231523 69 199 2.6 5.2 0.00 0.00 0.00 56 1004.0
20260504231012 69 163 2.6 5.2 0.00 0.00 0.00 56 1004.2
20260504230508 69 186 2.6 9.6 0.00 0.00 0.00 56 1004.3
20260504230024 69 191 3.5 9.6 0.00 0.00 0.00 55 1004.3
20260504225008 70 192 2.6 6.1 0.00 0.00 0.00 55 1004.5
20260504224512 70 184 4.3 6.1 0.00 0.00 0.00 54 1004.5
20260504224004 70 205 2.6 6.1 0.00 0.00 0.00 54 1004.3
20260504223507 70 167 2.6 7.8 0.00 0.00 0.00 54 1004.4
20260504223026 70 182 2.6 9.6 0.00 0.00 0.00 55 1004.5
20260504222010 70 191 5.2 9.6 0.00 0.00 0.00 54 1004.5
20260504221526 70 194 2.6 7.0 0.00 0.00 0.00 57 1004.6
20260504220024 70 198 3.5 7.0 0.00 0.00 0.00 56 1004.6
20260504215510 69 207 4.3 7.0 0.00 0.00 0.00 56 1004.7
20260504215012 69 194 4.3 7.0 0.00 0.00 0.00 57 1004.6
20260504214508 69 171 2.6 6.1 0.00 0.00 0.00 57 1004.7
20260504213025 70 164 2.6 7.0 0.00 0.00 0.00 55 1004.7
20260504211007 70 192 3.5 7.0 0.00 0.00 0.00 55 1004.6
20260504205011 70 194 4.3 7.8 0.00 0.00 0.00 57 1004.9
20260504204537 70 166 4.3 7.8 0.00 0.00 0.00 57 1005.0
20260504204016 70 147 2.6 6.1 0.00 0.00 0.00 57 1005.0
20260504203511 70 170 3.5 5.2 0.00 0.00 0.00 54 1005.0
20260504201523 70 295 2.6 7.8 0.00 0.00 0.00 56 1005.1
20260504200503 70 199 3.5 7.8 0.00 0.00 0.00 56 1005.2
20260504200005 70 174 2.6 7.8 0.00 0.00 0.00 56 1005.2
20260504195504 70 197 4.3 7.0 0.00 0.00 0.00 55 1005.3
20260504195003 70 159 2.6 7.8 0.00 0.00 0.00 55 1005.4
20260504194503 70 188 4.3 7.0 0.00 0.00 0.00 57 1005.3
20260504194007 70 193 3.5 7.0 0.00 0.00 0.00 55 1005.6
20260504193506 70 167 2.6 7.0 0.00 0.00 0.00 56 1005.6
20260504193008 70 173 2.6 7.8 0.00 0.00 0.00 57 1005.7
20260504191516 69 166 3.5 7.8 0.00 0.00 0.00 57 1005.9
20260504191007 69 181 3.5 8.7 0.00 0.00 0.00 58 1005.9
20260504190004 69 203 3.5 7.8 0.00 0.00 0.00 57 1006.2
20260504185504 69 206 4.3 7.8 0.00 0.00 0.00 57 1006.4
20260504185005 69 181 4.3 7.0 0.00 0.00 0.00 57 1006.3
20260504184504 69 179 4.3 7.0 0.00 0.00 0.00 57 1006.4
20260504184004 69 182 3.5 7.0 0.00 0.00 0.00 57 1006.4
20260504183507 69 173 2.6 7.0 0.00 0.00 0.00 60 1006.4
20260504183010 69 195 3.5 7.8 0.00 0.00 0.00 55 1006.5
20260504181515 68 167 3.5 7.8 0.00 0.00 0.00 56 1006.5
20260504175008 68 163 3.5 11.3 0.00 0.00 0.00 57 1006.5
20260504174514 68 174 5.2 11.3 0.00 0.00 0.00 56 1006.7
20260504174004 68 177 4.3 10.4 0.00 0.00 0.00 57 1006.8
20260504173504 68 166 4.3 7.8 0.00 0.00 0.00 55 1006.8
20260504173008 68 167 4.3 7.8 0.00 0.00 0.00 56 1006.9
20260504172504 68 173 3.5 7.8 0.00 0.00 0.00 58 1007.0
20260504172003 67 169 2.6 6.1 0.00 0.00 0.00 57 1007.0